Volver al catálogo

FREGAT R/B

ActivoMEO
NORAD 37848·ROCKET BODY·🇷🇺 Russia

Lanzado Oct 21, 2011 desde Guiana Space Centre

Loading…

Próximos Pases (próximas 24 horas)

TLE

ActualizadoSource: Space-Track

Época: Sep 9, 2026, 15:33 UTC

1 37848U 11060C   26252.64812074 -.00000108  00000-0  00000-0 0  9997
2 37848  57.3062 346.0990 0006827 328.3301  39.8079  1.67041879 90681

Sigue FREGAT R/B en tiempo real con AllMySat

Download on the App Store